Location: Warszawa
(52.2500°N, 21.0000°E)
Time: 21:10:58
(UTC+01:00)

ISS - Visible Passes

Search period start: 24 March 2023 00:00
Search period end: 03 April 2023 01:00
Orbit: 414 x 422 km, 51.6° (Epoch: 24 March)

Date Brightness Start Highest point End Pass type
(mag) Time Alt. Az. Time Alt. Az. Time Alt. Az.
24 Mar -3.8 18:43:25 10° W 18:46:46 79° S 18:49:49 12° E visible
24 Mar -3.0 20:20:10 10° W 20:22:45 47° WSW 20:22:45 47° WSW visible
25 Mar -3.8 19:32:16 10° W 19:35:37 75° S 19:36:46 38° ESE visible
25 Mar -0.8 21:09:09 10° W 21:09:42 13° W 21:09:42 13° W visible
26 Mar -3.8 19:44:20 10° W 19:47:41 81° S 19:50:45 12° E visible
26 Mar -2.6 21:21:07 10° W 21:23:41 36° SW 21:23:41 36° SW visible
27 Mar -3.4 20:33:07 10° W 20:36:25 53° SSW 20:37:38 32° SE visible
27 Mar -0.7 22:10:30 10° WSW 22:10:34 10° WSW 22:10:34 10° WSW visible
28 Mar -3.6 19:45:06 10° W 19:48:26 65° SSW 19:51:34 11° ESE visible
28 Mar -1.9 21:22:08 10° W 21:24:30 22° SW 21:24:30 22° SW visible
29 Mar -2.5 20:33:56 10° W 20:36:56 31° SSW 20:38:26 21° SSE visible
30 Mar -2.9 19:45:46 10° W 19:48:58 41° SSW 19:52:08 10° SE visible
30 Mar -1.1 21:23:53 10° WSW 21:25:04 11° SW 21:25:19 11° SW visible
31 Mar -1.4 20:34:57 10° W 20:37:11 17° SW 20:39:17 11° S visible
01 Apr -1.8 19:46:29 10° W 19:49:13 23° SSW 19:51:57 10° SSE visible
